GEFSCGP_500_meanwind_354.txt.gz
Wind_Speed
32 33 33 33 34 35 36 37 38 38 38 39 39 39 38 38 39 38 39 39 40 40 40 41 41 42 41 41 41 42 42 42 42 42 41 41 41 41 41 40 40 40 40 41
32 32 32 33 34 35 36 37 37 38 39 39 39 39 40 39 40 40 39 39 40 41 41 42 42 43 43 43 42 42 43 43 42 42 42 43 43 43 43 43 43 43 42 42
32 31 32 33 34 35 36 37 37 38 39 40 41 41 41 40 40 41 40 40 41 41 41 41 42 43 43 43 43 43 44 44 44 44 44 44 44 44 44 44 45 45 44 44
31 31 32 33 34 35 36 36 37 37 39 40 41 43 41 41 41 41 41 41 40 41 41 41 41 42 43 43 43 44 44 45 44 45 45 45 45 45 45 45 46 46 46 46
32 31 32 33 34 35 36 36 37 37 38 40 40 43 43 42 42 41 41 41 41 41 41 41 41 41 42 43 44 45 45 46 46 45 45 46 46 45 45 46 46 46 46 46
31 32 33 33 32 33 35 36 37 38 38 40 40 41 42 41 41 41 41 41 40 41 41 42 41 41 42 43 44 44 45 46 47 47 46 46 46 46 46 46 46 46 47 47
31 31 32 33 33 33 33 33 34 36 37 39 37 40 41 40 41 41 41 41 40 40 40 41 42 42 42 43 44 44 44 45 46 47 47 47 47 47 47 46 47 47 47 47
31 31 31 32 32 32 32 33 33 35 36 36 36 38 38 39 39 39 40 40 40 40 40 40 41 42 43 43 44 44 44 45 45 46 46 47 47 47 47 47 47 47 48 48
31 31 30 30 30 30 31 32 32 34 35 35 36 36 36 36 37 37 37 38 39 39 40 40 40 41 42 43 43 44 44 45 46 46 46 47 47 48 48 48 48 48 48 49
30 31 30 29 30 30 30 31 32 33 34 35 35 35 35 35 35 35 35 36 36 37 39 40 40 41 41 42 42 43 44 45 46 47 48 48 49 49 49 49 49 49 49 49
30 31 30 30 29 29 29 29 30 32 33 34 35 35 35 35 35 36 36 36 36 36 36 38 39 40 40 41 42 43 44 45 45 47 48 49 49 50 50 50 50 51 51 51
30 31 31 30 29 29 30 30 30 31 32 33 34 34 34 35 36 36 37 36 35 35 36 37 38 39 39 41 42 43 44 45 46 47 48 49 51 51 52 52 52 52 52 52
31 31 31 30 29 28 29 29 30 31 32 32 33 34 34 35 36 37 37 37 36 36 37 37 38 39 40 41 42 43 44 45 46 47 47 49 50 51 52 53 53 53 52 52
31 31 31 30 30 29 29 29 30 31 33 33 33 33 33 34 35 37 37 36 36 37 37 37 38 39 40 41 42 43 44 45 45 46 47 48 49 50 51 52 53 53 53 53
31 31 31 30 30 30 30 31 31 32 33 33 33 33 33 33 34 35 36 36 36 36 36 37 38 39 40 41 43 43 43 44 45 46 47 47 48 49 50 51 51 52 53 53
31 32 31 30 30 30 30 30 31 33 33 33 34 33 33 34 35 36 36 36 36 37 37 37 37 38 39 40 42 43 43 44 44 45 46 46 47 48 48 49 50 51 52 52
30 31 31 31 30 31 31 29 30 31 32 33 34 34 34 35 35 35 36 36 36 37 37 37 38 38 38 40 41 41 42 43 44 44 45 45 46 47 48 49 49 50 50 51
29 29 30 31 31 31 30 30 30 30 30 32 34 34 34 35 34 34 35 35 34 35 36 37 38 39 39 40 40 41 42 43 43 44 45 45 46 47 47 48 49 50 50 50
28 29 30 31 31 32 30 30 30 31 30 31 32 33 34 34 35 35 35 35 35 35 36 37 38 38 39 39 39 39 40 41 42 43 44 44 45 46 47 47 48 48 49 49
28 29 30 31 32 32 31 31 31 32 32 31 31 32 33 33 34 34 34 35 35 36 36 36 36 37 38 38 39 40 40 41 41 42 42 43 44 44 45 45 46 46 47 47
29 29 29 30 31 32 31 31 32 32 32 32 31 31 31 31 32 32 33 33 34 34 34 35 36 36 37 38 38 38 39 40 40 41 41 42 42 43 43 44 44 45 45 45
29 30 30 30 31 31 31 31 32 33 33 32 32 31 31 31 31 31 31 32 32 33 33 33 34 35 35 35 36 37 37 38 39 39 40 40 41 41 42 42 42 43 43 44
29 30 30 31 30 31 31 31 31 32 32 32 32 31 31 30 30 31 31 31 32 33 33 33 34 34 34 34 34 34 35 35 36 37 37 38 39 39 40 40 41 42 42 42
30 30 30 31 30 30 30 30 30 30 31 30 29 29 29 29 30 30 30 31 32 32 33 33 33 33 33 32 32 32 33 33 34 34 34 35 36 37 38 38 39 40 40 40
29 30 30 30 29 29 29 30 30 30 29 28 28 28 28 28 29 29 30 30 30 31 31 32 32 32 32 32 32 31 32 32 32 32 32 33 34 35 36 37 37 37 37 38
28 29 30 29 29 29 29 29 29 29 28 27 27 27 28 28 28 28 29 29 30 30 31 31 31 31 31 32 32 32 32 31 31 31 32 32 33 34 35 35 35 35 36 36

GEFSCGP_500_meanwind_360.txt.gz
Wind_Speed
29 29 29 30 31 32 33 33 34 35 36 36 36 36 36 36 36 36 36 36 36 37 37 38 38 39 38 38 39 39 38 39 40 41 42 43 43 43 42 42 42 42 42 42
28 29 29 30 30 31 33 33 33 34 35 36 37 36 36 36 37 37 37 37 37 37 38 39 38 39 39 39 39 39 39 40 40 41 42 43 44 44 44 43 44 43 43 44
28 29 29 29 30 31 31 33 33 34 34 36 37 37 36 36 37 37 38 38 38 38 39 39 38 38 39 40 40 40 41 41 41 42 43 44 45 45 45 45 45 45 45 45
28 28 28 29 29 30 31 31 33 34 35 35 36 39 37 36 37 38 38 38 38 39 39 39 39 39 40 41 41 41 42 43 43 43 44 45 45 46 46 46 46 46 46 46
28 27 28 28 28 29 30 31 32 34 35 37 37 39 39 37 37 37 38 38 39 39 39 39 39 40 40 41 41 42 42 43 44 44 45 45 46 46 46 46 47 47 47 47
28 28 28 28 29 30 30 31 31 32 34 36 35 38 39 38 38 38 38 38 39 39 39 39 39 40 41 41 42 42 43 43 44 45 46 47 48 47 48 47 47 47 48 48
27 28 28 29 29 29 29 30 31 32 33 35 35 37 38 37 37 37 37 37 38 38 38 39 40 40 41 41 42 43 44 45 45 46 46 47 48 48 49 49 48 49 49 48
26 26 27 28 28 29 29 30 31 33 34 34 34 35 35 35 35 35 35 35 36 37 38 39 40 40 41 42 43 43 44 45 46 47 47 47 48 49 49 50 50 51 50 50
26 27 26 27 27 28 29 29 31 33 34 34 35 35 34 33 33 32 33 34 35 36 37 37 38 40 40 42 43 44 44 45 46 46 47 48 48 49 50 50 51 51 52 52
27 28 26 26 27 28 29 29 29 30 32 33 34 34 34 32 31 31 31 32 34 35 36 37 38 38 40 41 42 43 44 45 45 46 46 47 48 49 49 50 51 51 52 52
28 28 27 27 27 28 29 30 30 31 32 33 34 33 32 32 32 31 32 32 33 34 35 36 37 38 39 40 41 42 44 45 45 45 45 46 47 48 49 50 50 51 51 52
28 28 28 28 28 29 29 29 29 30 31 32 33 32 31 32 32 33 33 34 34 34 35 36 37 38 39 39 40 41 42 43 44 45 46 46 47 48 49 50 51 51 51 52
29 29 30 30 30 30 30 29 29 30 31 32 33 32 31 32 32 33 34 34 34 35 36 37 38 39 40 40 41 41 42 42 44 45 46 46 47 48 48 49 50 51 52 52
29 30 31 31 31 31 31 30 30 31 31 32 32 32 31 32 33 34 34 34 34 34 36 37 38 39 40 41 41 42 41 42 43 44 45 46 46 47 48 49 50 51 51 52
30 31 31 31 31 30 30 30 30 31 32 33 32 32 32 33 34 34 34 35 35 35 36 37 37 39 39 40 40 42 43 43 43 44 45 45 46 46 47 48 49 50 51 52
31 31 31 31 31 30 30 30 30 31 32 33 33 33 33 34 34 34 34 34 35 35 36 36 37 37 37 38 39 40 41 42 43 43 44 44 44 46 46 47 48 49 50 51
30 30 31 31 31 31 30 29 30 31 32 32 33 33 33 33 33 33 34 34 34 34 34 35 35 36 37 37 38 39 40 40 41 42 43 44 44 45 45 46 47 48 49 50
31 31 31 31 31 31 30 29 29 31 31 32 32 32 33 33 32 33 33 34 34 34 35 34 35 35 36 37 37 38 39 40 40 41 43 44 45 45 45 46 47 48 49 50
31 31 31 31 31 32 29 29 29 29 30 30 31 31 32 32 32 32 33 33 34 34 34 34 35 35 36 36 37 37 38 39 40 41 42 43 45 45 46 47 47 48 49 49
30 30 31 31 32 32 31 30 29 30 30 29 29 30 30 30 30 30 32 33 34 34 34 34 35 35 36 36 36 37 37 38 39 40 41 41 42 43 44 45 46 47 48 49
30 30 30 30 31 32 31 31 31 31 30 30 30 30 30 29 30 30 31 32 33 33 34 34 35 35 36 36 36 37 38 38 39 39 40 41 41 42 43 43 44 45 46 47
30 30 30 30 30 30 31 31 32 32 31 31 31 30 30 30 31 31 31 32 32 32 33 33 33 33 34 34 34 34 35 36 37 38 39 39 40 40 41 41 41 43 44 45
29 30 31 30 30 29 30 31 31 31 31 31 31 31 31 31 31 31 32 32 32 32 31 31 31 31 32 33 33 34 34 35 35 35 36 37 38 38 38 39 39 40 41 42
28 29 30 30 30 29 29 30 30 31 31 32 32 32 32 31 31 31 31 31 30 30 30 30 30 31 31 32 33 33 34 34 34 34 34 35 35 36 37 37 38 39 40 41
29 30 30 31 30 30 30 31 31 31 31 32 32 32 32 32 31 31 31 30 30 30 29 30 30 30 30 31 32 33 33 34 33 33 33 34 34 35 35 36 36 37 38 39
29 30 31 30 30 30 30 31 31 31 31 32 32 32 32 32 32 31 31 31 31 30 30 30 29 29 29 30 31 31 32 33 33 33 34 34 34 35 35 35 35 36 37 37

GEFSCGP_500_meanwind_366.txt.gz
Wind_Speed
31 32 32 32 32 32 33 33 33 33 33 35 35 35 35 35 35 35 36 37 38 38 39 39 39 39 39 38 38 39 39 39 39 38 39 41 41 41 41 42 42 42 41 41
32 32 32 32 32 32 33 34 33 33 34 35 35 36 35 35 36 36 36 37 38 38 39 40 40 41 40 40 40 40 40 40 40 40 40 40 42 42 42 42 43 43 43 43
31 31 31 32 33 33 33 33 33 34 34 36 36 36 35 35 36 36 37 37 38 39 39 40 41 41 41 41 41 41 41 41 41 42 42 42 42 43 43 43 44 44 45 44
31 31 32 32 32 33 33 33 34 34 35 36 37 38 35 35 36 36 36 37 38 39 40 41 41 42 42 42 42 42 42 43 43 42 43 43 43 43 43 44 45 45 46 45
31 31 31 32 32 32 33 33 33 34 35 36 36 39 37 36 36 36 37 37 38 39 40 41 42 42 43 43 43 43 43 44 43 43 43 43 44 44 45 45 46 46 46 46
32 32 32 31 32 32 32 32 33 34 35 36 36 38 38 37 36 35 36 37 38 39 40 41 42 43 43 44 44 44 44 44 44 44 45 45 45 45 46 46 47 48 48 48
32 32 33 32 32 32 32 33 34 35 36 37 37 38 38 37 36 36 36 37 38 39 40 41 42 42 43 44 44 45 45 45 46 46 46 46 46 46 47 48 48 48 49 49
30 31 32 32 33 33 33 33 34 36 37 38 37 38 36 37 36 36 36 37 38 39 40 41 42 42 43 44 45 45 45 46 46 47 47 47 47 48 48 49 49 49 49 50
30 30 30 31 32 32 32 33 34 36 38 38 38 38 36 37 37 37 37 37 38 39 39 41 42 42 43 43 44 45 45 46 47 47 48 48 49 49 50 50 51 51 50 50
30 31 30 31 31 32 32 32 33 34 36 38 39 38 36 36 37 37 37 37 37 38 38 39 41 41 42 43 44 44 45 46 47 48 48 49 49 50 51 51 52 52 52 52
31 32 31 31 31 32 32 32 33 34 36 37 39 38 36 36 37 37 37 36 36 36 37 38 40 41 41 41 42 43 44 45 46 46 47 47 48 50 50 51 52 53 53 53
29 31 32 31 31 32 32 33 33 34 35 37 39 38 35 36 37 37 36 36 36 36 36 37 38 39 40 40 41 42 43 44 45 45 46 46 47 47 48 49 50 52 53 54
29 30 31 32 32 32 32 33 33 34 35 36 37 36 36 36 36 37 37 36 36 36 36 36 37 38 39 40 41 41 41 42 43 43 44 44 44 46 47 48 48 49 51 52
30 30 31 32 32 32 32 33 33 34 35 35 35 35 35 36 37 37 37 36 36 36 36 36 37 38 38 39 40 41 41 41 41 42 43 44 45 45 47 48 48 48 49 49
32 32 32 32 33 33 34 34 35 35 35 36 36 36 35 36 37 37 37 36 36 36 36 36 37 38 38 39 39 40 41 42 42 42 43 44 45 46 47 47 48 48 49 49
32 33 33 33 34 34 34 34 35 35 36 36 36 36 36 37 37 37 37 36 36 36 36 36 36 37 38 39 39 40 41 41 42 42 43 43 44 45 46 47 47 47 48 49
33 34 34 33 34 35 36 34 34 35 35 35 35 34 35 36 36 36 36 37 37 36 35 35 36 36 37 38 38 39 40 41 42 42 43 44 44 45 46 46 46 47 48 48
34 34 35 35 35 37 36 34 34 35 34 35 35 35 35 35 35 36 35 35 35 36 36 36 36 36 37 38 38 39 40 41 41 42 43 43 44 45 46 46 46 47 48 48
34 35 36 36 36 37 35 34 34 34 34 34 35 35 35 35 36 35 35 35 35 35 36 37 38 38 37 38 38 39 40 40 41 42 43 43 43 44 45 45 46 47 48 48
33 34 35 36 37 37 34 33 33 34 34 33 34 35 35 35 35 34 35 35 36 36 36 36 37 38 38 39 39 40 41 41 42 43 43 43 43 44 44 45 45 46 47 48
33 34 35 35 36 36 34 34 33 34 34 33 33 34 35 35 36 36 36 36 37 37 37 38 38 38 39 39 39 40 41 41 42 42 43 43 44 44 44 44 45 45 46 46
33 34 35 35 36 35 34 34 34 34 34 34 34 34 35 36 36 37 37 37 37 37 37 38 39 39 39 39 39 39 40 40 41 41 41 42 43 43 43 44 44 44 44 45
34 34 35 35 35 36 36 36 36 36 35 35 35 35 36 36 36 37 36 36 37 37 37 37 37 38 37 37 38 38 38 38 38 38 38 39 40 41 41 41 42 42 43 43
34 34 35 34 34 35 36 36 37 37 37 36 36 36 36 36 36 36 35 35 35 36 36 36 37 37 36 36 36 36 37 37 37 37 37 37 38 39 39 39 40 41 41 41
34 34 34 34 34 35 35 35 36 36 36 36 36 36 36 36 36 36 35 35 34 35 35 35 35 35 35 35 35 35 35 35 35 35 36 36 37 37 36 36 37 38 39 40
33 34 34 34 34 34 34 34 35 35 35 35 35 35 35 35 35 36 36 36 35 35 35 35 34 34 34 34 34 34 34 34 34 34 34 35 35 35 36 36 36 37 37 39

GEFSCGP_500_meanwind_372.txt.gz
Wind_Speed
28 30 31 30 31 31 32 32 33 33 33 33 33 33 32 32 33 33 34 34 35 35 35 36 36 36 37 38 39 39 40 40 40 40 39 40 40 40 41 41 41 42 42 42
27 29 29 30 31 31 31 32 32 32 33 34 33 33 32 33 33 33 34 34 35 35 36 36 37 37 37 38 39 39 40 40 40 40 40 40 40 41 41 42 42 43 43 43
26 27 28 30 31 31 31 31 32 32 33 33 34 33 32 33 34 34 34 35 35 36 37 37 37 37 38 39 39 40 40 40 41 41 41 41 40 42 43 43 43 44 45 45
27 27 28 30 31 31 32 31 32 32 33 33 33 35 32 32 33 34 34 35 36 37 38 38 38 38 38 39 40 40 41 41 41 42 42 42 42 42 43 43 44 45 46 46
28 27 28 29 30 31 31 31 31 32 34 34 34 36 34 32 33 33 34 34 35 36 37 38 38 38 38 39 40 41 42 43 43 43 43 43 44 43 43 44 45 46 46 47
27 28 28 29 29 30 31 31 31 32 33 35 34 34 35 33 33 33 34 34 35 36 37 38 39 39 39 39 40 42 42 43 44 44 44 44 44 44 45 46 47 47 47 47
27 28 28 29 29 30 30 31 31 32 33 34 33 34 34 33 33 33 33 34 35 36 36 37 38 39 40 40 42 43 43 43 44 46 46 45 45 46 46 47 48 48 49 48
27 28 28 28 28 29 30 30 31 32 33 33 33 33 33 33 33 33 33 33 34 34 35 36 37 39 40 41 42 43 44 44 45 46 47 47 48 48 47 48 49 50 49 50
28 28 28 28 27 28 29 30 30 32 33 33 33 34 33 34 34 33 33 33 33 34 36 36 37 39 40 41 41 42 44 45 46 46 47 48 49 49 48 48 48 50 51 51
28 28 28 27 28 28 29 29 30 30 32 34 34 33 32 33 34 34 34 34 34 34 35 36 37 38 39 41 41 42 43 45 46 46 46 47 48 49 49 48 49 49 51 52
28 29 28 28 28 28 28 29 30 31 32 33 34 33 31 31 32 33 33 34 35 35 35 36 37 38 39 40 40 41 42 43 44 44 45 45 46 46 47 48 48 49 50 52
28 29 29 29 29 28 29 29 30 31 32 32 33 32 31 31 32 32 33 35 35 35 35 35 36 37 38 39 39 40 40 41 43 43 44 44 45 45 45 46 47 48 49 51
27 28 29 29 29 29 29 29 29 30 31 32 33 32 32 32 33 33 34 35 35 35 35 35 36 36 37 37 38 38 38 39 41 42 43 44 44 45 45 45 46 47 48 49
28 28 28 29 30 30 30 29 29 31 31 32 32 32 31 32 34 34 35 35 34 34 34 34 34 34 35 36 36 36 37 38 39 41 42 43 44 45 45 45 46 47 48 48
29 29 29 29 30 31 30 31 32 32 32 33 32 33 32 33 34 35 35 35 35 34 34 34 33 33 34 35 35 35 36 37 38 39 41 42 44 45 45 46 47 47 48 48
30 30 30 30 31 32 31 31 33 33 34 34 34 33 34 34 35 35 35 35 35 35 35 34 34 34 34 35 35 36 37 37 38 39 40 41 42 43 44 45 46 47 48 49
30 31 32 31 32 33 32 31 32 34 34 34 35 34 35 36 36 36 37 36 36 36 36 36 36 36 36 37 37 37 38 39 39 40 40 41 42 43 44 45 45 46 47 48
31 31 32 33 33 34 32 32 33 34 35 35 35 36 37 37 37 37 38 38 38 38 38 37 37 37 37 37 38 38 38 39 39 40 41 42 42 43 44 44 45 46 46 47
30 31 32 33 34 34 33 33 34 35 35 36 36 37 37 37 37 37 38 38 38 39 38 38 38 39 38 38 38 39 38 39 40 40 42 43 43 43 43 44 44 45 46 47
29 30 31 32 33 34 33 33 34 35 36 35 36 36 37 36 37 37 37 37 37 37 38 38 38 38 38 38 39 39 39 39 40 40 41 42 43 43 44 44 44 45 46 46
29 30 31 32 33 34 33 33 33 34 35 35 36 36 37 37 37 37 36 36 36 36 36 37 37 37 37 37 38 39 40 40 41 41 41 42 43 43 43 44 44 45 45 46
30 31 32 33 34 33 33 33 33 34 34 34 35 36 37 37 37 37 37 37 37 37 36 36 36 36 37 37 38 38 39 40 41 41 41 42 42 43 43 43 44 44 45 45
31 32 33 33 33 34 34 34 35 35 34 34 35 35 36 36 37 37 37 37 37 37 36 36 36 36 36 37 37 38 39 39 40 40 40 40 41 42 42 42 43 44 44 45
32 32 33 33 33 33 34 35 36 35 35 35 35 35 35 35 36 36 37 37 37 37 37 37 37 37 37 37 38 39 39 39 39 39 39 39 40 40 41 41 42 42 43 43
32 33 33 33 33 33 34 35 35 36 35 35 35 35 35 35 35 36 36 37 37 37 37 37 37 37 38 38 38 39 39 39 39 39 39 39 40 40 40 40 40 41 41 41
31 31 32 33 33 33 34 35 35 35 35 34 34 34 35 35 35 36 36 36 36 36 36 36 36 37 37 37 37 37 37 38 38 38 38 38 38 38 38 39 39 39 39 40

GEFSCGP_500_meanwind_378.txt.gz
Wind_Speed
27 28 29 29 29 30 32 33 33 33 34 35 35 35 35 36 36 36 37 37 37 37 37 38 38 39 39 40 40 40 40 40 40 40 40 40 40 39 39 40 41 41 42 42
27 26 26 27 27 29 31 32 33 33 33 35 35 35 35 36 36 36 37 37 37 37 38 38 38 38 39 40 41 40 41 41 40 40 40 40 40 40 40 40 41 41 41 42
27 26 26 27 28 29 31 31 32 32 32 33 35 34 34 35 36 36 37 37 37 38 38 39 39 38 38 39 40 41 41 40 40 40 39 40 41 40 40 40 41 41 42 42
28 27 27 28 28 29 30 31 32 32 33 33 33 35 33 34 35 36 36 37 37 37 38 38 39 38 38 38 39 40 40 40 40 40 40 40 41 42 42 41 42 43 43 43
28 28 28 28 28 29 30 30 31 31 33 33 32 34 32 32 33 34 35 36 36 36 37 37 38 38 38 39 39 40 40 41 41 42 42 42 42 43 43 43 44 44 44 43
28 28 29 29 29 29 30 30 31 31 32 34 32 34 33 31 32 33 34 35 35 35 36 37 37 38 39 39 40 40 41 41 42 43 43 44 44 44 44 44 45 44 45 45
28 28 28 28 28 29 30 29 30 31 32 34 33 34 34 32 32 33 34 35 35 35 36 36 37 37 38 39 40 41 42 42 42 43 44 45 46 46 45 45 45 46 46 46
28 28 28 28 29 29 30 30 30 31 32 33 33 34 34 33 32 33 34 35 35 36 36 37 37 37 38 39 41 41 42 42 43 43 44 45 46 47 47 47 46 47 48 47
28 28 28 29 29 29 29 30 30 32 33 34 33 33 33 32 32 32 33 34 34 35 36 37 38 38 39 40 41 42 43 43 44 44 45 46 47 48 48 48 47 46 46 47
29 29 29 29 29 30 31 30 31 32 33 33 33 32 32 32 32 32 33 34 35 35 35 36 37 38 39 39 40 41 42 43 44 44 45 45 46 47 48 48 47 46 45 46
30 31 30 30 30 30 31 31 32 33 34 34 34 33 32 32 32 33 33 34 35 35 36 36 36 37 38 38 39 40 42 42 43 43 44 45 46 46 46 47 46 45 45 45
30 31 31 31 31 31 31 31 32 33 34 34 34 33 32 33 33 33 34 35 35 36 36 37 37 37 37 38 39 40 40 41 41 42 43 44 45 45 45 46 45 44 44 45
30 31 32 31 31 32 32 31 32 33 34 34 34 32 31 33 34 34 34 35 36 36 37 38 37 37 38 39 39 39 40 41 41 42 42 43 43 44 44 45 45 45 45 45
31 32 32 32 32 32 31 32 32 34 34 35 34 32 32 32 34 36 36 36 36 37 38 38 38 38 38 38 39 39 40 41 41 41 42 42 43 43 43 44 46 46 46 46
31 32 32 32 32 33 33 33 33 34 34 35 33 33 33 34 35 36 38 38 38 38 38 38 39 38 38 38 38 39 40 41 41 41 42 42 42 42 43 44 45 45 45 46
31 32 32 32 33 34 35 34 34 35 35 36 35 34 34 35 37 37 38 39 39 38 38 38 38 39 39 39 39 39 39 40 41 41 42 42 41 42 43 43 43 44 44 45
32 33 33 33 33 35 35 33 34 34 35 36 36 36 36 37 37 37 38 39 39 39 39 38 39 39 39 39 39 39 39 39 40 41 42 42 42 42 43 44 44 43 43 43
33 34 35 35 34 36 34 34 34 35 34 35 37 37 38 38 37 37 38 38 39 40 40 40 39 39 39 39 39 39 40 40 41 41 41 42 42 43 44 44 44 43 43 43
33 34 35 36 36 36 34 33 34 35 35 35 36 37 39 39 38 38 38 38 39 40 40 41 41 40 40 40 39 40 40 41 42 42 42 42 43 43 44 44 44 44 44 44
32 33 35 36 37 37 34 34 35 37 37 36 37 37 39 40 40 39 38 38 39 41 41 42 42 41 41 40 40 40 40 41 42 43 43 43 43 43 43 44 45 45 45 45
33 33 34 35 36 36 35 35 36 37 37 37 38 38 38 39 40 39 39 38 38 39 40 41 41 41 40 40 40 40 40 41 41 41 42 43 43 44 44 44 45 45 46 47
33 34 34 35 35 35 34 35 36 36 37 37 38 38 38 39 39 40 40 39 38 38 38 39 40 40 40 40 40 40 40 40 41 41 42 42 43 44 45 45 45 46 47 47
34 34 35 35 34 34 34 35 36 36 37 37 38 38 38 39 39 39 40 40 39 39 39 39 39 39 39 40 40 40 40 40 41 41 42 42 43 43 44 44 45 46 47 47
35 34 35 35 34 35 35 36 36 36 37 37 38 38 38 38 39 39 39 39 39 40 40 40 39 39 39 39 39 39 40 40 40 41 41 41 42 42 42 43 44 45 46 46
35 35 35 35 35 36 36 36 37 37 37 37 38 38 38 38 39 39 39 39 39 39 40 40 40 40 40 39 39 39 40 39 39 39 40 40 41 41 42 42 43 44 44 44
34 35 35 35 35 36 36 36 37 37 36 37 38 39 39 39 39 39 39 39 39 39 40 40 40 40 40 41 41 41 41 41 40 40 39 39 40 40 41 41 42 42 42 43

GEFSCGP_500_meanwind_384.txt.gz
Wind_Speed
27 28 28 29 31 32 33 33 34 33 33 33 34 34 35 35 35 34 34 34 34 35 35 35 36 35 35 36 36 37 37 36 37 38 38 38 38 38 38 37 37 38 39 39
28 28 28 29 30 32 33 33 33 33 34 33 33 34 34 35 35 34 34 34 35 35 36 36 36 37 37 37 37 37 37 37 38 38 38 39 39 38 38 38 38 38 39 40
27 27 29 30 30 31 32 32 32 33 33 34 34 34 34 34 34 34 35 35 35 35 36 36 37 37 37 38 38 38 38 38 38 38 38 39 39 39 40 40 40 40 41 41
27 27 28 29 30 31 31 32 32 33 33 33 34 34 33 33 34 34 34 35 35 36 36 37 38 37 37 38 38 39 39 39 40 39 39 39 40 41 41 42 41 41 42 41
28 28 28 29 28 30 31 31 31 32 32 33 33 34 33 33 34 34 34 34 35 35 36 37 37 37 37 37 38 39 39 40 40 40 40 40 41 41 42 42 42 43 43 43
28 28 29 28 28 29 29 29 31 31 32 33 32 33 33 32 34 34 34 34 35 36 36 37 37 37 37 37 38 38 39 40 41 42 41 41 41 42 42 43 43 44 45 45
27 27 28 28 28 28 28 29 30 32 33 33 31 32 32 31 32 33 34 34 35 36 36 36 37 37 38 38 38 38 39 40 40 41 42 42 42 42 43 44 44 44 46 47
26 27 27 28 28 28 28 29 29 31 32 33 33 32 31 31 31 33 34 34 35 36 36 36 36 37 38 38 39 39 40 40 41 42 42 43 44 44 45 46 45 45 46 47
26 26 26 28 28 28 28 28 29 31 33 34 34 33 32 31 32 33 33 34 35 35 36 36 37 37 38 39 39 40 41 42 42 42 43 44 45 45 46 47 47 47 47 48
27 27 27 27 28 29 30 30 30 32 33 34 35 34 33 32 33 33 33 34 35 35 36 37 38 38 38 39 40 41 42 43 43 43 44 45 46 47 47 48 48 48 48 48
27 27 27 27 27 28 29 31 32 33 34 35 36 34 33 33 33 34 34 34 35 36 37 38 38 38 39 40 40 41 42 43 43 44 44 45 46 47 48 48 49 48 48 48
27 28 28 27 27 28 28 29 31 33 34 35 37 36 34 34 34 34 34 35 36 36 37 38 39 39 40 41 42 42 42 42 43 44 45 45 45 46 47 48 48 49 49 48
27 28 28 28 29 29 29 30 31 33 34 35 36 35 34 35 35 34 35 36 36 36 37 38 39 40 41 42 42 43 43 42 43 44 44 45 45 46 46 47 47 48 49 49
28 29 29 30 30 30 30 31 31 32 34 35 35 34 33 34 35 35 35 36 37 37 37 38 39 40 41 41 42 42 42 42 42 43 43 44 44 45 45 46 47 47 48 48
29 29 29 30 31 32 32 32 32 33 33 34 34 34 33 34 34 34 35 37 37 38 38 38 39 39 40 41 41 42 42 42 42 42 43 43 44 44 45 45 47 47 47 48
29 30 30 30 31 32 33 32 33 33 33 34 34 33 33 35 35 35 36 37 37 37 37 38 38 39 39 40 40 41 42 42 42 42 42 43 44 45 46 45 46 47 48 48
30 30 31 31 31 32 33 31 32 32 32 33 34 33 33 34 35 36 36 37 37 36 37 37 38 38 39 39 40 40 41 42 42 43 43 44 45 45 45 45 46 47 47 47
30 31 32 32 33 35 32 32 33 34 33 33 34 34 34 35 35 36 37 37 37 37 38 38 39 39 39 40 40 41 41 41 42 43 44 44 45 45 45 46 46 47 47 48
30 31 33 34 36 36 34 33 33 34 33 33 34 34 35 36 36 37 37 38 38 38 39 39 39 40 40 40 40 41 41 42 42 42 43 44 44 44 45 45 46 47 47 47
30 31 33 34 36 37 34 33 34 34 34 33 34 35 36 37 37 37 38 38 39 39 39 39 39 40 40 40 41 42 43 43 43 43 43 44 45 44 44 44 45 45 46 46
30 31 33 34 36 36 34 34 34 35 35 35 35 36 36 37 38 38 38 39 39 39 39 39 39 40 40 41 42 42 43 43 43 43 44 44 44 44 45 44 44 45 45 46
32 33 34 34 36 34 34 34 35 35 35 36 36 37 37 37 38 38 38 38 38 39 39 39 39 39 40 41 42 42 42 42 42 42 42 43 44 44 44 45 45 45 45 46
33 34 35 35 35 35 34 34 35 36 36 37 38 38 39 38 38 38 37 37 37 38 38 39 39 38 39 39 40 40 40 41 41 41 42 42 42 43 44 44 44 45 45 45
34 35 35 35 35 36 36 35 35 36 36 37 38 38 39 38 38 37 37 36 36 37 37 38 38 38 38 38 38 39 39 40 41 41 41 41 42 43 43 43 43 44 45 45
34 34 34 35 35 35 35 36 36 36 36 37 37 37 37 37 37 36 36 36 36 37 37 37 37 37 37 38 39 39 39 40 41 41 41 41 42 42 42 43 43 43 44 44
33 33 34 34 34 35 35 36 36 36 36 37 37 37 36 36 36 36 36 36 36 36 37 37 38 38 39 39 40 40 41 41 41 41 41 41 41 41 41 41 42 42 43 44